Connexion S'enregistrer

Connexion à votre compte

Identifiant
Mot de passe
Maintenir la connexion active sur ce site

Créer un compte

Pour valider ce formulaire, vous devez remplir tous les champs.
Nom
Identifiant
Mot de passe
Répétez le mot de passe
Adresse e-mail
Répétez l'adresse e-mail

URGENT! L'Aéroclub recherche de nouveaux instructeurs.

Prise de fonction immédiate.

 

L’Aéroclub de Savoie recherche FIAs qualifiés, bénévoles (préférés) ou auto-entrepreneurs, sans expérience prérequise, pour BB et PPL.

Qualif montagne et vol nuit bienvenues.

Souhait d’une implication pédagogique au-delà de l’acquisition d’expérience.

Bénévoles, défraiement maximum : 60km. 

Contacter le secrétariat ou envoyer candidature par mail.

Nous contacter

 Téléphone : +33 (0)4 79 54 41 81

Coordonnées détaillées et accès : cliquez ici

 
LFLB °C
    Ferienhaus Ostsee
[source: ADDS]
METAR
LFLB 182230Z AUTO 20003KT CAVOK 17/15 Q1019 =
TAF LFLB 181100Z 1812/1912 VRB03KT CAVOK TEMPO 1812/1816 34005KT TEMPO 1910/1912 34006KT
TAF
TAF LFLB 181100Z 1812/1912 VRB03KT CAVOK TEMPO 1812/1816 34005KT TEMPO 1910/1912 34006KT =
SR / SS: 05:20 / 17:40 UTC (Lever/Coucher du soleil le 2018-09-19)
JSN Boot template designed by JoomlaShine.com